KB1LTW-13 Weather Reports


time (UTC)temp
C
wind
direction
speed
KPH
gust
KPH
rain 1hr
cm
rain 24hr
cm
rain mn
cm
humidity
%
barometer
mb
20260505152127 23 94 3.2 6.4 0.00 0.00 0.00 47 1012.3
20260505151120 23 56 4.8 9.7 0.00 0.00 0.00 47 1012.7
20260505150146 22 100 3.2 4.8 0.00 0.00 0.00 48 1012.5
20260505140118 19 112 1.6 1.6 0.00 0.00 0.00 58 1012.3
20260505130119 16 100 0.0 3.2 0.00 0.00 0.00 64 1012.4
20260505124141 16 46 6.4 9.7 0.00 0.00 0.00 61 1013.2
20260505123123 15 52 4.8 9.7 0.00 0.00 0.00 63 1013.2
20260505122117 15 104 1.6 4.8 0.00 0.00 0.00 66 1013.0
20260505121123 14 99 1.6 3.2 0.00 0.00 0.00 68 1012.9
20260505120120 13 0.0 1.6 0.00 0.00 0.00 70 1012.7
20260505115121 13 104 0.0 1.6 0.00 0.00 0.00 72 1012.9
20260505114122 12 103 0.0 3.2 0.00 0.00 0.00 73 1013.0
20260505113118 12 121 0.0 3.2 0.00 0.00 0.00 73 1013.1
20260505112124 12 0.0 1.6 0.00 0.00 0.00 74 1013.1
20260505111144 12 0.0 1.6 0.00 0.00 0.00 76 1012.7
20260505110121 11 0.0 0.0 0.00 0.00 0.00 78 1013.0
20260505102131 11 104 0.0 1.6 0.00 0.00 0.00 78 1012.4
20260505101121 9 94 0.0 3.2 0.00 0.00 0.00 84 1012.1
20260505100122 9 0.0 0.0 0.00 0.00 0.00 85 1012.1
20260505095123 8 0.0 0.0 0.00 0.00 0.00 84 1012.2
20260505094124 9 0.0 0.0 0.00 0.00 0.00 83 1012.2
20260505093159 10 0.0 0.0 0.00 0.00 0.00 81 1012.1
20260505092133 10 0.0 0.0 0.00 0.00 0.00 80 1012.1
20260505091117 10 0.0 0.0 0.00 0.00 0.00 79 1012.3
20260505090123 10 0.0 0.0 0.00 0.00 0.00 80 1012.2
20260505085124 10 0.0 1.6 0.00 0.00 0.00 80 1012.2
20260505084200 9 0.0 0.0 0.00 0.00 0.00 80 1012.4
20260505083126 10 0.0 0.0 0.00 0.00 0.00 80 1012.5
20260505082116 10 0.0 0.0 0.00 0.00 0.00 79 1012.3
20260505081123 9 0.0 0.0 0.00 0.00 0.00 80 1012.4
20260505080124 9 0.0 0.0 0.00 0.00 0.00 79 1012.4
20260505075125 9 0.0 0.0 0.00 0.00 0.00 79 1012.3
20260505074120 10 0.0 0.0 0.00 0.00 0.00 77 1012.6
20260505073136 10 0.0 0.0 0.00 0.00 0.00 75 1012.4
20260505072117 10 0.0 0.0 0.00 0.00 0.00 74 1012.5
20260505071124 10 0.0 0.0 0.00 0.00 0.00 74 1012.5
20260505070125 11 0.0 0.0 0.00 0.00 0.00 72 1012.3
20260505065116 11 0.0 0.0 0.00 0.00 0.00 71 1012.6
20260505064116 11 0.0 0.0 0.00 0.00 0.00 70 1012.3
20260505063117 11 0.0 0.0 0.00 0.00 0.00 69 1012.6
20260505062138 11 0.0 1.6 0.00 0.00 0.00 68 1012.6
20260505061125 11 109 0.0 3.2 0.00 0.00 0.00 68 1012.6
20260505060146 11 119 0.0 1.6 0.00 0.00 0.00 69 1012.8
20260505055116 11 87 3.2 4.8 0.00 0.00 0.00 68 1012.9
20260505054123 12 0.0 0.0 0.00 0.00 0.00 67 1012.8
20260505053139 12 100 0.0 1.6 0.00 0.00 0.00 66 1012.9
20260505052119 12 0.0 1.6 0.00 0.00 0.00 64 1013.1
20260505051126 12 91 1.6 4.8 0.00 0.00 0.00 63 1013.0
20260505050123 12 96 1.6 3.2 0.00 0.00 0.00 64 1013.1
20260505041127 13 87 1.6 4.8 0.00 0.00 0.00 61 1013.1
20260505040117 13 98 0.0 1.6 0.00 0.00 0.00 62 1013.3
20260505035120 12 91 1.6 6.4 0.00 0.00 0.00 63 1013.3
20260505034126 12 100 0.0 3.2 0.00 0.00 0.00 64 1013.1
20260505033120 13 99 0.0 3.2 0.00 0.00 0.00 63 1013.2
20260505032141 12 98 0.0 1.6 0.00 0.00 0.00 63 1013.2
20260505031123 12 97 3.2 3.2 0.00 0.00 0.00 63 1013.4
20260505030139 12 97 1.6 3.2 0.00 0.00 0.00 63 1013.2
20260505025118 12 98 0.0 1.6 0.00 0.00 0.00 63 1013.1
20260505024124 12 99 1.6 1.6 0.00 0.00 0.00 63 1013.2
20260505023120 12 0.0 1.6 0.00 0.00 0.00 63 1013.3
20260505022142 12 0.0 0.0 0.00 0.00 0.00 63 1013.2
20260505021124 12 100 0.0 1.6 0.00 0.00 0.00 62 1013.2
20260505020121 13 96 0.0 3.2 0.00 0.00 0.00 60 1013.1
20260505015121 13 85 3.2 6.4 0.00 0.00 0.00 59 1013.2
20260505014120 13 95 1.6 3.2 0.00 0.00 0.00 58 1013.1
20260505013121 13 96 1.6 4.8 0.00 0.00 0.00 57 1013.1
20260505012123 13 94 1.6 3.2 0.00 0.00 0.00 56 1012.8
20260505011131 14 107 0.0 1.6 0.00 0.00 0.00 55 1012.7
20260505010141 14 97 1.6 4.8 0.00 0.00 0.00 54 1012.7
20260505005120 15 0.0 1.6 0.00 0.00 0.00 53 1012.4
20260505004121 15 82 3.2 6.4 0.00 0.00 0.00 52 1012.1
20260505003122 15 99 1.6 4.8 0.00 0.00 0.00 51 1012.1
20260505002125 15 95 3.2 4.8 0.00 0.00 0.00 51 1012.2
20260505001117 15 95 3.2 9.7 0.00 0.00 0.00 50 1011.8
20260505000123 16 8 4.8 9.7 0.00 0.00 0.00 49 1011.7
20260504235122 16 71 4.8 9.7 0.00 0.00 0.00 48 1011.4
20260504234123 16 92 3.2 4.8 0.00 0.00 0.00 47 1011.3
20260504233118 16 24 3.2 6.4 0.00 0.00 0.00 46 1011.1
20260504232120 17 97 3.2 6.4 0.00 0.00 0.00 45 1011.0
20260504231121 17 55 4.8 6.4 0.00 0.00 0.00 45 1010.9
20260504230120 17 85 3.2 6.4 0.00 0.00 0.00 44 1010.7
20260504225123 17 90 3.2 9.7 0.00 0.00 0.00 43 1010.7
20260504224123 18 69 3.2 11.3 0.00 0.00 0.00 41 1010.5
20260504223119 20 77 3.2 12.9 0.00 0.00 0.00 32 1010.4
20260504222116 20 87 3.2 6.4 0.00 0.00 0.00 32 1010.4
20260504221122 20 93 1.6 11.3 0.00 0.00 0.00 31 1010.5
20260504220142 20 80 1.6 3.2 0.00 0.00 0.00 31 1010.3
20260504215120 21 86 4.8 9.7 0.00 0.00 0.00 30 1010.5
20260504214145 21 60 4.8 11.3 0.00 0.00 0.00 30 1010.5
20260504213123 20 94 1.6 3.2 0.00 0.00 0.00 31 1010.7
20260504212119 21 94 1.6 4.8 0.00 0.00 0.00 30 1010.7
20260504211117 21 70 3.2 6.4 0.00 0.00 0.00 30 1010.8
20260504210122 21 111 0.0 4.8 0.00 0.00 0.00 31 1010.7
20260504205124 21 104 1.6 6.4 0.00 0.00 0.00 30 1010.6
20260504204125 22 94 3.2 4.8 0.00 0.00 0.00 28 1010.6
20260504203115 21 98 1.6 6.4 0.00 0.00 0.00 29 1010.8
20260504202121 21 89 3.2 6.4 0.00 0.00 0.00 30 1010.8
20260504201116 21 350 8.0 12.9 0.00 0.00 0.00 30 1011.0
20260504200124 21 90 1.6 3.2 0.00 0.00 0.00 30 1011.0
20260504195125 21 5 11.3 24.1 0.00 0.00 0.00 30 1011.0
20260504194115 21 104 3.2 11.3 0.00 0.00 0.00 31 1011.0
20260504193115 20 86 3.2 6.4 0.00 0.00 0.00 31 1011.0
20260504192136 20 98 4.8 9.7 0.00 0.00 0.00 31 1011.1
20260504191119 20 96 1.6 3.2 0.00 0.00 0.00 32 1011.0
20260504190125 20 96 3.2 4.8 0.00 0.00 0.00 31 1011.2
20260504185115 20 85 3.2 14.5 0.00 0.00 0.00 30 1011.2
20260504184116 20 69 3.2 12.9 0.00 0.00 0.00 31 1011.1
20260504183144 20 93 3.2 9.7 0.00 0.00 0.00 30 1011.5
20260504182119 20 58 4.8 12.9 0.00 0.00 0.00 31 1011.4
20260504181118 20 85 1.6 11.3 0.00 0.00 0.00 32 1011.6
20260504180207 19 52 6.4 12.9 0.00 0.00 0.00 31 1011.7
20260504175117 19 69 4.8 11.3 0.00 0.00 0.00 31 1011.7
20260504174117 20 57 6.4 12.9 0.00 0.00 0.00 31 1011.5
20260504173139 20 145 1.6 16.1 0.00 0.00 0.00 32 1011.6
20260504172123 20 28 6.4 14.5 0.00 0.00 0.00 30 1011.9
20260504171121 19 126 1.6 9.7 0.00 0.00 0.00 33 1012.0
20260504170127 19 53 8.0 14.5 0.00 0.00 0.00 31 1012.0
20260504160128 17 34 8.0 16.1 0.00 0.00 0.00 30 1012.7